FW6320 Weather Reports


time (UTC)temp
C
wind
direction
speed
KPH
gust
KPH
rain 1hr
cm
rain 24hr
cm
rain mn
cm
humidity
%
barometer
mb
20260509101541 19 0 0.0 4.8 0.00 0.28 0.00 91 1009.5
20260509101016 19 0 0.0 4.8 0.00 0.28 0.00 91 1009.5
20260509100517 19 0 0.0 4.8 0.00 0.28 0.00 91 1009.3
20260509100040 19 0 0.0 1.6 0.00 0.28 0.00 91 1009.2
20260509095515 19 0 0.0 1.6 0.00 0.28 0.00 91 1008.9
20260509095016 19 360 0.0 3.2 0.00 0.28 0.00 91 1009.0
20260509094534 19 0 0.0 6.4 0.00 0.28 0.00 91 1008.7
20260509094016 20 360 0.0 8.0 0.00 0.28 0.00 91 1008.6
20260509093516 20 352 3.2 12.9 0.00 0.28 0.00 90 1008.4
20260509093035 20 360 4.8 19.3 0.00 0.28 0.00 90 1008.3
20260509092518 20 360 4.8 19.3 0.00 0.28 0.00 90 1008.1
20260509092016 20 5 9.7 24.1 0.00 0.28 0.00 90 1007.9
20260509091531 20 323 11.3 24.1 0.00 0.28 0.00 90 1007.7
20260509091019 20 348 9.7 27.4 0.00 0.28 0.00 89 1007.7
20260509090517 20 313 11.3 27.4 0.00 0.28 0.00 89 1007.7
20260509090035 20 345 12.9 22.5 0.00 0.28 0.00 89 1007.7
20260509085517 20 11 8.0 22.5 0.00 0.28 0.00 88 1007.7
20260509085016 20 325 11.3 22.5 0.00 0.28 0.00 87 1007.7
20260509084539 21 329 8.0 19.3 0.00 0.28 0.00 85 1007.7
20260509084016 21 5 4.8 17.7 0.00 0.28 0.00 84 1007.6
20260509083521 21 254 8.0 22.5 0.00 0.28 0.00 83 1007.5
20260509083043 21 261 11.3 22.5 0.00 0.28 0.00 82 1007.6
20260509082516 21 279 12.9 22.5 0.00 0.28 0.00 82 1007.7
20260509082016 20 271 8.0 20.9 0.00 0.28 0.00 83 1007.6
20260509081542 20 290 3.2 12.9 0.00 0.28 0.00 85 1007.6
20260509081021 20 305 3.2 6.4 0.00 0.28 0.00 85 1007.2
20260509080516 20 0 0.0 4.8 0.00 0.28 0.00 85 1006.7
20260509080036 20 0 0.0 8.0 0.00 0.28 0.00 85 1006.6
20260509075517 20 0 0.0 8.0 0.00 0.28 0.00 86 1006.5
20260509075016 20 131 0.0 9.7 0.00 0.28 0.00 87 1006.6
20260509074535 20 0 1.6 20.9 0.00 0.28 0.00 88 1006.6
20260509074016 20 111 4.8 27.4 0.00 0.28 0.00 89 1006.7
20260509073516 20 154 8.0 27.4 0.00 0.28 0.00 90 1007.2
20260509073037 20 175 11.3 27.4 0.00 0.28 0.00 90 1007.6
20260509072525 20 157 11.3 20.9 0.00 0.28 0.00 91 1008.0
20260509072022 20 150 11.3 22.5 0.00 0.28 0.00 92 1008.3
20260509071538 20 121 8.0 22.5 0.00 0.28 0.00 92 1008.8
20260509071020 20 115 6.4 20.9 0.00 0.28 0.00 92 1009.2
20260509070516 20 182 8.0 20.9 0.00 0.28 0.00 92 1009.5
20260509070036 20 156 9.7 19.3 0.00 0.28 0.00 92 1009.3
20260509065515 20 155 9.7 19.3 0.00 0.28 0.00 92 1009.5
20260509065024 20 138 8.0 16.1 0.00 0.28 0.00 93 1009.8
20260509064541 19 144 6.4 12.9 0.00 0.28 0.00 93 1010.1
20260509064022 19 161 3.2 8.0 0.00 0.28 0.00 93 1010.3
20260509063516 19 0 1.6 9.7 0.00 0.28 0.00 93 1010.4
20260509063035 18 159 1.6 11.3 0.00 0.28 0.00 92 1010.4
20260509062516 18 0 3.2 11.3 0.00 0.28 0.00 92 1010.5
20260509062017 18 156 0.0 3.2 0.00 0.28 0.00 92 1010.6
20260509061537 18 0 0.0 0.0 0.00 0.28 0.00 93 1011.0
20260509061016 18 0 0.0 0.0 0.00 0.28 0.00 92 1011.1
20260509060517 18 0 0.0 3.2 0.00 0.28 0.00 92 1011.1
20260509060036 18 0 0.0 3.2 0.00 0.28 0.00 92 1011.1
20260509055516 18 0 0.0 6.4 0.00 0.28 0.00 92 1011.0
20260509055016 18 0 1.6 6.4 0.00 0.28 0.00 91 1010.9
20260509054542 18 163 0.0 6.4 0.00 0.28 0.00 91 1011.0
20260509054018 18 0 0.0 6.4 0.00 0.28 0.00 90 1011.1
20260509053521 18 163 0.0 6.4 0.00 0.28 0.00 90 1010.8
20260509053115 19 0 0.0 0.0 0.00 0.28 0.00 89 1010.7
20260509052520 19 0 0.0 3.2 0.00 0.28 0.00 89 1010.6
20260509052015 19 0 0.0 3.2 0.00 0.28 0.00 89 1010.7
20260509051542 20 0 1.6 4.8 0.00 0.28 0.00 89 1010.8
20260509051016 20 254 1.6 4.8 0.00 0.28 0.00 89 1010.8
20260509050516 20 256 1.6 4.8 0.00 0.28 0.00 88 1011.1
20260509050040 20 0 0.0 0.0 0.00 0.28 0.00 88 1011.6
20260509045516 20 0 0.0 3.2 0.00 0.28 0.28 88 1011.7
20260509045018 20 0 0.0 12.9 0.00 0.28 0.28 88 1012.0
20260509044534 20 0 1.6 14.5 0.00 0.28 0.28 89 1012.1
20260509044015 20 0 4.8 14.5 0.00 0.28 0.28 89 1012.4
20260509043517 20 304 4.8 14.5 0.00 0.28 0.28 89 1012.2
20260509043035 20 291 8.0 14.5 0.00 0.28 0.28 89 1012.2
20260509042519 20 298 3.2 6.4 0.00 0.28 0.28 88 1011.5
20260509042016 20 0 0.0 3.2 0.00 0.28 0.28 87 1010.8
20260509041535 20 0 0.0 4.8 0.00 0.28 0.28 87 1010.6
20260509041017 20 71 0.0 6.4 0.00 0.28 0.28 87 1010.6
20260509040519 20 0 0.0 9.7 0.00 0.28 0.28 87 1010.2
20260509040046 20 71 3.2 9.7 0.00 0.28 0.28 87 1010.1
20260509035516 20 74 4.8 9.7 0.00 0.28 0.28 87 1009.9
20260509035016 20 64 3.2 12.9 0.00 0.28 0.28 87 1009.8
20260509034535 20 101 3.2 12.9 0.00 0.28 0.28 87 1009.7
20260509034017 20 91 6.4 14.5 0.00 0.28 0.28 86 1009.8
20260509033516 20 71 6.4 14.5 0.00 0.28 0.28 86 1009.7
20260509033035 20 78 6.4 14.5 0.00 0.28 0.28 87 1009.7
20260509032516 20 73 4.8 12.9 0.00 0.28 0.28 87 1009.8
20260509032018 20 57 3.2 9.7 0.00 0.28 0.28 86 1009.9
20260509031543 20 57 3.2 12.9 0.00 0.28 0.28 87 1009.9
20260509031017 20 63 3.2 14.5 0.00 0.28 0.28 87 1009.9
20260509030521 20 19 4.8 14.5 0.00 0.28 0.28 87 1009.9
20260509030042 20 19 6.4 14.5 0.00 0.28 0.28 87 1010.2
20260509025518 20 350 6.4 16.1 0.00 0.28 0.28 87 1010.3
20260509025020 20 355 6.4 16.1 0.00 0.28 0.28 87 1010.4
20260509024537 20 329 4.8 12.9 0.00 0.28 0.28 87 1010.2
20260509024019 20 315 4.8 9.7 0.00 0.28 0.28 86 1009.9
20260509023519 20 355 1.6 4.8 0.00 0.28 0.28 85 1009.5
20260509023045 21 58 1.6 9.7 0.00 0.28 0.28 85 1009.2
20260509022523 21 59 1.6 12.9 0.00 0.28 0.28 85 1009.0
20260509022019 21 61 4.8 14.5 0.00 0.28 0.28 85 1008.5
20260509021541 21 74 8.0 14.5 0.00 0.28 0.28 86 1008.2
20260509021018 21 78 6.4 16.1 0.00 0.28 0.28 86 1008.1
20260509020520 21 69 6.4 16.1 0.00 0.28 0.28 85 1007.8
20260509020045 21 68 4.8 14.5 0.00 0.28 0.28 85 1007.9
20260509015519 21 81 3.2 12.9 0.00 0.28 0.28 85 1008.0
20260509015019 21 93 3.2 14.5 0.00 0.28 0.28 84 1007.9
20260509014538 21 84 4.8 14.5 0.00 0.28 0.28 84 1007.8
20260509014018 21 77 4.8 12.9 0.00 0.28 0.28 84 1007.8
20260509013518 21 80 1.6 12.9 0.00 0.28 0.28 83 1007.7
20260509013052 21 0 0.0 1.6 0.00 0.28 0.28 82 1007.8
20260509012518 21 0 0.0 0.0 0.00 0.28 0.28 82 1007.9
20260509012026 21 0 0.0 0.0 0.00 0.28 0.28 81 1007.9
20260509011539 22 0 0.0 0.0 0.00 0.28 0.28 81 1008.1
20260509011020 22 0 0.0 0.0 0.00 0.28 0.28 81 1008.2
20260509010519 22 0 0.0 0.0 0.00 0.28 0.28 80 1008.2
20260509010035 22 0 0.0 0.0 0.00 0.28 0.28 80 1008.3
20260509005521 22 0 0.0 0.0 0.00 0.28 0.28 80 1008.5
20260509005019 22 0 0.0 6.4 0.00 0.28 0.28 80 1008.4
20260509004541 22 0 0.0 9.7 0.00 0.28 0.28 79 1008.4
20260509004019 22 143 3.2 11.3 0.00 0.28 0.28 79 1008.3
20260509003519 22 111 1.6 11.3 0.00 0.28 0.28 78 1008.2
20260509003054 22 148 3.2 9.7 0.00 0.28 0.28 78 1008.1
20260509002518 22 146 1.6 8.0 0.00 0.28 0.28 78 1008.0
20260509002018 23 146 3.2 9.7 0.00 0.28 0.28 77 1008.1
20260509001534 23 0 1.6 12.9 0.00 0.28 0.28 77 1008.0
20260509001019 23 134 3.2 14.5 0.00 0.28 0.28 77 1007.9
20260509000524 23 121 3.2 14.5 0.00 0.28 0.28 77 1007.8
20260509000044 23 154 4.8 14.5 0.00 0.28 0.28 76 1007.8
20260508235519 23 102 3.2 11.3 0.00 0.28 0.28 76 1007.8
20260508235018 23 140 3.2 11.3 0.00 0.28 0.28 76 1007.9
20260508234535 23 105 1.6 12.9 0.00 0.28 0.28 76 1007.9
20260508234020 23 142 3.2 17.7 0.00 0.28 0.28 75 1008.0
20260508233519 23 151 4.8 17.7 0.00 0.28 0.28 75 1008.1
20260508233036 23 84 3.2 17.7 0.00 0.28 0.28 75 1008.1
20260508232519 23 86 3.2 16.1 0.00 0.28 0.28 74 1008.1
20260508232019 23 150 3.2 16.1 0.00 0.28 0.28 74 1008.2
20260508231539 23 139 4.8 16.1 0.00 0.28 0.28 73 1008.2
20260508231017 23 104 4.8 16.1 0.00 0.28 0.28 72 1008.1
20260508230518 23 133 4.8 12.9 0.00 0.28 0.28 72 1008.0
20260508230040 24 162 6.4 19.3 0.00 0.28 0.28 71 1008.1
20260508225524 24 80 4.8 19.3 0.00 0.28 0.28 72 1008.1
20260508225018 24 88 1.6 16.1 0.00 0.28 0.28 72 1008.1
20260508224543 24 72 1.6 16.1 0.00 0.28 0.28 72 1008.1
20260508224017 24 74 4.8 16.1 0.00 0.28 0.28 72 1008.1
20260508223524 24 101 3.2 20.9 0.00 0.28 0.28 72 1008.2
20260508223042 24 88 9.7 20.9 0.00 0.28 0.28 73 1008.3
20260508222519 24 81 9.7 19.3 0.00 0.28 0.28 72 1008.3
20260508222020 24 75 6.4 16.1 0.00 0.28 0.28 71 1008.3
20260508221536 24 123 3.2 16.1 0.00 0.28 0.28 71 1008.2
20260508221017 24 138 3.2 16.1 0.00 0.28 0.28 71 1008.4
20260508220521 24 151 6.4 16.1 0.00 0.28 0.28 70 1008.3
20260508220035 24 136 4.8 11.3 0.00 0.28 0.28 71 1008.4
20260508215516 24 117 1.6 12.9 0.00 0.28 0.28 71 1008.4
20260508215020 25 123 4.8 12.9 0.00 0.28 0.28 70 1008.4
20260508214541 25 101 3.2 12.9 0.00 0.28 0.28 72 1008.4
20260508214017 25 142 3.2 14.5 0.00 0.28 0.28 72 1008.5
20260508213518 24 167 4.8 16.1 0.00 0.28 0.28 72 1008.5
20260508213041 24 92 4.8 16.1 0.00 0.28 0.28 72 1008.6
20260508212520 24 132 6.4 17.7 0.00 0.28 0.28 72 1008.6
20260508212018 24 87 8.0 17.7 0.00 0.28 0.28 71 1008.6
20260508211537 24 128 4.8 14.5 0.00 0.28 0.28 71 1008.5
20260508211023 24 115 4.8 17.7 0.00 0.28 0.28 71 1008.6
20260508210519 24 118 6.4 20.9 0.00 0.28 0.28 73 1008.7
20260508210036 24 98 8.0 20.9 0.00 0.28 0.28 72 1008.7
20260508205518 24 115 6.4 20.9 0.00 0.28 0.28 71 1008.6
20260508205020 24 70 4.8 19.3 0.00 0.28 0.28 71 1008.8
20260508204536 23 77 9.7 24.1 0.00 0.28 0.28 71 1008.9
20260508204017 23 150 6.4 24.1 0.00 0.28 0.28 71 1009.3
20260508203517 23 83 6.4 19.3 0.00 0.28 0.28 72 1009.3
20260508203037 23 119 9.7 17.7 0.00 0.28 0.28 71 1009.7
20260508202518 23 134 9.7 19.3 0.00 0.28 0.28 71 1010.0
20260508202017 23 95 9.7 19.3 0.00 0.28 0.28 70 1010.1
20260508201541 23 111 9.7 19.3 0.00 0.28 0.28 71 1010.1
20260508201019 23 141 6.4 16.1 0.00 0.28 0.28 72 1010.4
20260508200517 23 161 8.0 19.3 0.00 0.28 0.28 71 1010.6
20260508200052 23 143 3.2 19.3 0.00 0.28 0.28 72 1010.6
20260508195519 23 146 11.3 19.3 0.00 0.28 0.28 71 1010.7
20260508195019 23 153 8.0 16.1 0.00 0.28 0.28 70 1010.7
20260508194536 24 153 8.0 16.1 0.00 0.28 0.28 70 1010.7
20260508194017 24 144 6.4 17.7 0.00 0.28 0.28 72 1010.7
20260508193519 24 148 9.7 17.7 0.00 0.28 0.28 70 1010.6
20260508193037 24 123 6.4 16.1 0.00 0.28 0.28 72 1010.8
20260508192519 24 143 6.4 16.1 0.00 0.28 0.28 70 1010.8
20260508192020 24 99 4.8 16.1 0.00 0.28 0.28 71 1010.9
20260508191541 24 139 4.8 16.1 0.00 0.28 0.28 71 1010.8
20260508191017 24 148 6.4 16.1 0.00 0.28 0.28 71 1010.9
20260508190518 23 159 4.8 12.9 0.00 0.28 0.28 71 1010.8
20260508190046 23 146 4.8 12.9 0.00 0.28 0.28 71 1010.9
20260508185517 23 154 3.2 12.9 0.00 0.28 0.28 71 1010.9
20260508185017 24 143 4.8 12.9 0.00 0.28 0.28 69 1011.0
20260508184545 24 98 4.8 12.9 0.00 0.28 0.28 71 1011.1
20260508184017 24 62 3.2 14.5 0.00 0.28 0.28 74 1011.1
20260508183519 24 146 4.8 14.5 0.00 0.28 0.28 74 1011.2
20260508183041 24 137 4.8 14.5 0.00 0.28 0.28 72 1011.2
20260508182517 24 152 4.8 14.5 0.00 0.28 0.28 73 1011.1
20260508182019 24 101 1.6 9.7 0.00 0.28 0.28 73 1011.2
20260508181536 23 150 3.2 14.5 0.00 0.28 0.28 73 1011.4
20260508181022 23 134 3.2 14.5 0.00 0.28 0.28 73 1011.5
20260508180518 23 150 6.4 14.5 0.00 0.28 0.28 73 1011.6
20260508180036 23 75 4.8 12.9 0.00 0.28 0.28 74 1011.6
20260508175520 23 125 4.8 12.9 0.00 0.28 0.28 74 1011.7
20260508175018 23 150 4.8 12.9 0.00 0.28 0.28 73 1011.9
20260508174557 23 130 4.8 11.3 0.00 0.28 0.28 73 1012.0
20260508174022 23 153 4.8 11.3 0.00 0.28 0.28 74 1012.0
20260508173518 22 156 3.2 11.3 0.00 0.28 0.28 73 1012.1
20260508173034 22 136 3.2 11.3 0.00 0.28 0.28 73 1012.2
20260508172517 22 161 4.8 11.3 0.00 0.28 0.28 75 1012.3
20260508172017 22 166 3.2 11.3 0.00 0.28 0.28 74 1012.3
20260508171540 22 129 3.2 12.9 0.00 0.28 0.28 78 1012.4
20260508171027 21 92 6.4 16.1 0.00 0.28 0.28 74 1012.4
20260508170517 22 147 6.4 16.1 0.00 0.28 0.28 75 1012.5
20260508170038 21 75 1.6 14.5 0.00 0.28 0.28 76 1012.7
20260508165517 21 161 3.2 14.5 0.00 0.28 0.28 75 1012.8
20260508165017 21 158 3.2 14.5 0.00 0.28 0.28 76 1012.8
20260508164547 20 79 1.6 17.7 0.00 0.28 0.28 77 1013.0
20260508164019 20 66 11.3 17.7 0.00 0.28 0.28 76 1013.1
20260508163519 20 91 4.8 16.1 0.00 0.28 0.28 78 1013.2
20260508163059 20 77 6.4 16.1 0.00 0.28 0.28 78 1013.2
20260508162518 20 119 4.8 16.1 0.00 0.28 0.28 76 1013.3
20260508162018 20 157 4.8 16.1 0.00 0.28 0.28 75 1013.2
20260508161540 20 92 3.2 12.9 0.00 0.28 0.28 76 1013.4
20260508161017 20 0 3.2 11.3 0.00 0.28 0.28 78 1013.5
20260508160520 19 76 3.2 11.3 0.00 0.28 0.28 76 1013.5
20260508160041 19 0 1.6 12.9 0.00 0.28 0.28 77 1013.6
20260508155517 19 144 4.8 17.7 0.00 0.28 0.28 74 1013.6
20260508155017 19 78 8.0 17.7 0.00 0.28 0.28 77 1013.7
20260508154535 19 0 4.8 12.9 0.00 0.28 0.28 77 1013.8
20260508154017 18 138 1.6 12.9 0.00 0.28 0.28 78 1013.8
20260508153518 18 144 4.8 16.1 0.00 0.28 0.28 76 1014.0
20260508153041 18 155 4.8 16.1 0.00 0.28 0.28 78 1013.9
20260508152517 18 153 1.6 11.3 0.00 0.28 0.28 78 1014.1
20260508152017 18 81 3.2 12.9 0.00 0.28 0.28 81 1014.1
20260508151542 18 145 3.2 12.9 0.00 0.28 0.28 79 1014.1
20260508151024 18 88 1.6 9.7 0.00 0.28 0.28 81 1014.1
20260508150522 18 155 3.2 9.7 0.00 0.28 0.28 80 1014.1
20260508150041 18 0 1.6 12.9 0.00 0.28 0.28 81 1014.2
20260508145518 18 74 0.0 12.9 0.00 0.28 0.28 81 1014.2
20260508145017 18 77 1.6 12.9 0.00 0.28 0.28 80 1014.3
20260508144539 18 84 1.6 14.5 0.00 0.28 0.28 80 1014.4
20260508144017 18 88 4.8 14.5 0.00 0.28 0.28 80 1014.3
20260508143517 18 84 6.4 19.3 0.00 0.28 0.28 80 1014.5
20260508143034 18 137 9.7 19.3 0.00 0.28 0.28 82 1014.3
20260508142517 17 85 6.4 12.9 0.00 0.28 0.28 84 1014.4
20260508142019 17 144 0.0 9.7 0.00 0.28 0.28 84 1014.4
20260508141535 17 66 1.6 9.7 0.00 0.28 0.28 85 1014.3
20260508141017 17 83 3.2 9.7 0.00 0.28 0.28 84 1014.3
20260508140518 17 80 4.8 8.0 0.00 0.28 0.28 84 1014.5
20260508140041 17 80 1.6 6.4 0.00 0.28 0.28 86 1014.6
20260508135518 17 0 1.6 12.9 0.00 0.28 0.28 84 1014.7
20260508135017 17 71 3.2 12.9 0.00 0.28 0.28 84 1014.8
20260508134544 17 0 0.0 6.4 0.00 0.28 0.28 85 1014.8
20260508134017 17 0 0.0 6.4 0.00 0.28 0.28 88 1014.7
20260508133523 16 74 0.0 8.0 0.00 0.28 0.28 88 1014.6
20260508133045 16 73 1.6 9.7 0.00 0.28 0.28 88 1014.5
20260508132517 16 72 4.8 11.3 0.00 0.28 0.28 89 1014.6
20260508132017 16 0 3.2 12.9 0.00 0.28 0.28 90 1014.5
20260508131543 16 63 3.2 12.9 0.00 0.28 0.28 90 1014.5
20260508131018 15 72 4.8 12.9 0.00 0.28 0.28 91 1014.5
20260508130517 15 100 1.6 4.8 0.00 0.28 0.28 92 1014.3
20260508130040 15 0 0.0 4.8 0.00 0.28 0.28 92 1014.4
20260508125518 15 0 0.0 11.3 0.00 0.28 0.28 92 1014.5
20260508125019 15 0 1.6 11.3 0.00 0.28 0.28 92 1014.4
20260508124540 15 81 3.2 9.7 0.00 0.28 0.28 92 1014.1
20260508124018 15 163 0.0 9.7 0.00 0.28 0.28 92 1014.4
20260508123517 15 95 3.2 9.7 0.00 0.28 0.28 91 1014.2
20260508123037 15 0 0.0 11.3 0.00 0.28 0.28 92 1014.3
20260508122517 15 0 3.2 11.3 0.00 0.28 0.28 92 1014.3
20260508122017 15 82 3.2 8.0 0.00 0.28 0.28 92 1014.2
20260508121541 15 75 3.2 8.0 0.00 0.28 0.28 92 1014.3
20260508121019 15 73 1.6 12.9 0.00 0.28 0.28 91 1014.4
20260508120517 15 74 3.2 12.9 0.00 0.28 0.28 91 1014.5
20260508120039 15 82 6.4 12.9 0.00 0.28 0.28 91 1014.4
20260508115518 15 74 0.0 6.4 0.00 0.28 0.28 92 1014.6
20260508115018 15 73 0.0 1.6 0.10 0.28 0.28 91 1014.7
20260508114534 15 0 0.0 0.0 0.28 0.28 0.28 91 1014.8
20260508114021 15 0 0.0 0.0 0.28 0.28 0.28 91 1014.7
20260508113519 15 0 0.0 0.0 0.28 0.28 0.28 91 1014.8
20260508113051 15 0 0.0 0.0 0.28 0.28 0.28 91 1014.8
20260508112517 15 0 0.0 0.0 0.28 0.28 0.28 90 1014.5
20260508112019 15 0 0.0 0.0 0.28 0.28 0.28 90 1014.3
20260508111540 15 0 0.0 1.6 0.28 0.28 0.28 90 1014.2
20260508111017 15 0 0.0 12.9 0.28 0.28 0.28 89 1014.4
20260508110517 15 74 0.0 12.9 0.28 0.28 0.28 89 1014.3
20260508110053 15 61 4.8 12.9 0.28 0.28 0.28 88 1013.9
20260508105519 15 97 1.6 6.4 0.25 0.25 0.25 87 1014.0
20260508105019 15 130 0.0 4.8 0.18 0.18 0.18 86 1014.4
20260508104536 15 130 1.6 4.8 0.00 0.00 0.00 86 1014.5
20260508104018 15 0 0.0 4.8 0.00 0.00 0.00 86 1014.0
20260508103518 15 128 1.6 4.8 0.00 0.00 0.00 85 1013.9
20260508103038 15 0 0.0 4.8 0.00 0.00 0.00 85 1013.9
20260508102518 15 0 0.0 4.8 0.00 0.00 0.00 85 1014.0
20260508102018 15 144 0.0 8.0 0.00 0.00 0.00 85 1014.1